OE3FJB-25 Weather Reports


time (UTC)temp
C
wind
direction
speed
KPH
gust
KPH
rain 1hr
cm
rain 24hr
cm
rain mn
cm
humidity
%
barometer
mb
20260506133833 22 0.0 0.0 0.00 0.00 0.00 50 1009.5
20260506132834 22 0.0 0.0 0.00 0.00 0.00 47 1009.5
20260506131834 23 0.0 0.0 0.00 0.00 0.00 48 1009.6
20260506130835 23 0.0 0.0 0.00 0.00 0.00 48 1009.7
20260506125837 23 0.0 0.0 0.00 0.00 0.00 51 1009.7
20260506124838 22 0.0 0.0 0.00 0.00 0.00 58 1009.9
20260506123839 23 0.0 0.0 0.00 0.00 0.00 55 1010.1
20260506122841 22 0.0 0.0 0.00 0.00 0.00 59 1010.2
20260506121842 22 0.0 0.0 0.00 0.00 0.00 62 1010.3
20260506120841 22 0.0 0.0 0.00 0.00 0.00 65 1010.5
20260506115843 22 0.0 0.0 0.00 0.00 0.00 67 1010.5
20260506114844 22 0.0 0.0 0.00 0.00 0.00 72 1010.6
20260506113846 21 0.0 0.0 0.00 0.00 0.00 89 1010.7
20260506112847 20 0.0 0.0 0.00 0.00 0.00 92 1011.0
20260506111848 20 0.0 0.0 0.00 0.00 0.00 95 1011.1
20260506110850 21 0.0 0.0 0.00 0.00 0.00 91 1011.2
20260506105851 21 0.0 0.0 0.00 0.00 0.00 93 1011.2
20260506104853 21 0.0 0.0 0.00 0.00 0.00 92 1011.3
20260506103854 21 0.0 0.0 0.00 0.00 0.00 91 1011.4
20260506102855 20 0.0 0.0 0.00 0.00 0.00 96 1011.4
20260506101857 19 0.0 0.0 0.00 0.00 0.00 99 1011.5
20260506100858 19 0.0 0.0 0.00 0.00 0.00 99 1011.6
20260506095900 20 0.0 0.0 0.00 0.00 0.00 94 1011.6
20260506094901 21 0.0 0.0 0.00 0.00 0.00 88 1011.7
20260506093902 20 0.0 0.0 0.00 0.00 0.00 96 1011.8
20260506092904 19 0.0 0.0 0.00 0.00 0.00 97 1011.7
20260506091905 20 0.0 0.0 0.00 0.00 0.00 99 1011.8
20260506090907 20 0.0 0.0 0.00 0.00 0.00 99 1011.8
20260506085906 20 0.0 0.0 0.00 0.00 0.00 99 1012.0
20260506084907 20 0.0 0.0 0.00 0.00 0.00 99 1011.9
20260506083909 19 0.0 0.0 0.00 0.00 0.00 99 1011.9
20260506082910 18 0.0 0.0 0.00 0.00 0.00 99 1012.0
20260506081911 17 0.0 0.0 0.00 0.00 0.00 99 1012.2
20260506080913 17 0.0 0.0 0.00 0.00 0.00 99 1012.1
20260506072918 16 0.0 0.0 0.00 0.00 0.00 99 1012.0
20260506071920 16 0.0 0.0 0.00 0.00 0.00 99 1012.1
20260506070921 16 0.0 0.0 0.00 0.00 0.00 99 1012.3
20260506061928 13 0.0 0.0 0.00 0.00 0.00 99 1012.0
20260506060929 13 0.0 0.0 0.00 0.00 0.00 99 1012.1
20260506050937 11 0.0 0.0 0.00 0.00 0.00 99 1012.0
20260506044940 10 0.0 0.0 0.00 0.00 0.00 99 1012.3
20260506043941 10 0.0 0.0 0.00 0.00 0.00 99 1012.3
20260506042942 10 0.0 0.0 0.00 0.00 0.00 99 1012.3
20260506041944 10 0.0 0.0 0.00 0.00 0.00 99 1012.4
20260506040945 10 0.0 0.0 0.00 0.00 0.00 99 1012.2
20260506035946 10 0.0 0.0 0.00 0.00 0.00 99 1011.9
20260506034947 10 0.0 0.0 0.00 0.00 0.00 99 1011.7
20260506033947 10 0.0 0.0 0.00 0.00 0.00 99 1011.7
20260506032948 10 0.0 0.0 0.00 0.00 0.00 99 1011.6
20260506031949 10 0.0 0.0 0.00 0.00 0.00 99 1011.6
20260506030951 10 0.0 0.0 0.00 0.00 0.00 99 1011.8
20260506025952 10 0.0 0.0 0.00 0.00 0.00 99 1011.8
20260506024953 10 0.0 0.0 0.00 0.00 0.00 99 1011.6
20260506023955 10 0.0 0.0 0.00 0.00 0.00 99 1011.7
20260506022956 10 0.0 0.0 0.00 0.00 0.00 99 1011.9
20260506021957 10 0.0 0.0 0.00 0.00 0.00 99 1011.9
20260506020959 10 0.0 0.0 0.00 0.00 0.00 99 1011.9
20260506015957 10 0.0 0.0 0.00 0.00 0.00 99 1011.9
20260506014958 10 0.0 0.0 0.00 0.00 0.00 99 1012.0
20260506014000 10 0.0 0.0 0.00 0.00 0.00 99 1012.0
20260506013001 10 0.0 0.0 0.00 0.00 0.00 99 1011.9
20260506012002 10 0.0 0.0 0.00 0.00 0.00 99 1011.8
20260506011004 10 0.0 0.0 0.00 0.00 0.00 99 1011.9
20260506010005 10 0.0 0.0 0.00 0.00 0.00 99 1011.9
20260506005006 10 0.0 0.0 0.00 0.00 0.00 99 1012.0
20260506004008 10 0.0 0.0 0.00 0.00 0.00 99 1012.0
20260506003009 10 0.0 0.0 0.00 0.00 0.00 99 1012.0
20260506002010 10 0.0 0.0 0.00 0.00 0.00 99 1011.8
20260506001006 10 0.0 0.0 0.00 0.00 0.00 99 1011.9
20260506000008 10 0.0 0.0 0.00 0.00 0.00 99 1011.8
20260505235009 10 0.0 0.0 0.00 0.00 0.00 99 1011.8
20260505234010 10 0.0 0.0 0.00 0.00 0.00 99 1011.6
20260505233012 11 0.0 0.0 0.00 0.00 0.00 99 1011.6
20260505232013 11 0.0 0.0 0.00 0.00 0.00 99 1011.6
20260505231014 11 0.0 0.0 0.00 0.00 0.00 99 1011.5
20260505230015 11 0.0 0.0 0.00 0.00 0.00 99 1011.4
20260505225016 11 0.0 0.0 0.00 0.00 0.00 99 1011.3
20260505224017 11 0.0 0.0 0.00 0.00 0.00 99 1011.2
20260505223019 11 0.0 0.0 0.00 0.00 0.00 99 1011.1
20260505222020 11 0.0 0.0 0.00 0.00 0.00 99 1010.9
20260505221021 11 0.0 0.0 0.00 0.00 0.00 99 1010.8
20260505220023 11 0.0 0.0 0.00 0.00 0.00 99 1010.8
20260505215024 11 0.0 0.0 0.00 0.00 0.00 99 1010.7
20260505214026 11 0.0 0.0 0.00 0.00 0.00 99 1010.6
20260505213027 11 0.0 0.0 0.00 0.00 0.00 99 1010.5
20260505212028 12 0.0 0.0 0.00 0.00 0.00 99 1010.6
20260505211030 12 0.0 0.0 0.00 0.00 0.00 99 1010.8
20260505210031 13 0.0 0.0 0.00 0.00 0.00 99 1010.6
20260505205032 13 0.0 0.0 0.00 0.00 0.00 99 1010.4
20260505204034 14 0.0 0.0 0.00 0.00 0.00 99 1010.2
20260505203035 15 0.0 0.0 0.00 0.00 0.00 99 1010.2
20260505202036 15 0.0 0.0 0.00 0.00 0.00 99 1009.9
20260505201038 15 0.0 0.0 0.00 0.00 0.00 99 1009.7
20260505200039 15 0.0 0.0 0.00 0.00 0.00 99 1009.6
20260505195041 16 0.0 0.0 0.00 0.00 0.00 99 1009.5
20260505194042 16 0.0 0.0 0.00 0.00 0.00 99 1009.4
20260505193044 17 0.0 0.0 0.00 0.00 0.00 99 1009.4
20260505192045 16 0.0 0.0 0.00 0.00 0.00 99 1009.1
20260505191046 16 0.0 0.0 0.00 0.00 0.00 99 1008.9
20260505190047 16 0.0 0.0 0.00 0.00 0.00 99 1008.9
20260505185049 16 0.0 0.0 0.00 0.00 0.00 99 1008.8
20260505184050 17 0.0 0.0 0.00 0.00 0.00 99 1008.8
20260505183052 17 0.0 0.0 0.00 0.00 0.00 99 1008.9
20260505182053 17 0.0 0.0 0.00 0.00 0.00 99 1008.8
20260505181054 17 0.0 0.0 0.00 0.00 0.00 99 1008.8
20260505180056 18 0.0 0.0 0.00 0.00 0.00 99 1008.9
20260505175057 18 0.0 0.0 0.00 0.00 0.00 99 1008.9
20260505174059 18 0.0 0.0 0.00 0.00 0.00 99 1008.9
20260505173100 18 0.0 0.0 0.00 0.00 0.00 99 1008.8
20260505172101 18 0.0 0.0 0.00 0.00 0.00 96 1008.9
20260505171103 19 0.0 0.0 0.00 0.00 0.00 71 1008.8
20260505170104 20 0.0 0.0 0.00 0.00 0.00 62 1008.8
20260505165106 21 0.0 0.0 0.00 0.00 0.00 55 1008.8
20260505164107 21 0.0 0.0 0.00 0.00 0.00 54 1008.8
20260505163107 20 0.0 0.0 0.00 0.00 0.00 54 1008.9
20260505162107 20 0.0 0.0 0.00 0.00 0.00 53 1009.0
20260505161107 20 0.0 0.0 0.00 0.00 0.00 52 1009.2
20260505160107 20 0.0 0.0 0.00 0.00 0.00 53 1009.3
20260505153110 21 0.0 0.0 0.00 0.00 0.00 57 1009.5
20260505152112 21 0.0 0.0 0.00 0.00 0.00 61 1009.6
20260505151113 21 0.0 0.0 0.00 0.00 0.00 62 1009.6
20260505150114 21 0.0 0.0 0.00 0.00 0.00 62 1009.7
20260505140123 22 0.0 0.0 0.00 0.00 0.00 64 1010.4